星链-5281 (STARLINK-5281 )

导读

STARLINK-5281是美国SpaceX公司星链(Starlink)星座中的一颗互联网卫星,于2022年10月28日发射升空,卫星质量约297千克,运行在高度约548公里的近地轨道,是星链星座组网的组成部分。星链计划旨在为全球偏远地区提供低延迟高速宽带互联网服务,目前已在全球六十多个国家和地区提供服务。

Basic Information
目录编号:
54190
目录名称:
STARLINK-5281
国际标识:
2022-141AK
轨道中心:
EARTH
卫星名称:
星链-5281
卫星全名:
星链-5281 (STARLINK-5281 )
卫星状态:
在轨 (已飞行1326 天)
发射日期:
2022-10-28 UTC
国别 :
美国 (US)
星等 :
--
Orbit Information
数据来源 国际轨道数据 AOE轨道数据
星历时间 2026-06-14T21:58:10+0800
17小时前
查看轨道信息
2026-06-13T11:00:00+0800
2天前
查看轨道信息
半长轴 6917.894km 6917.869km
偏心率 0.0001398 0.0001377
轨道倾角 53.162° 53.161°
近地点辐角 90.389° 88.841°
升交点赤经 279.192° 285.745°
平近点角 269.726° 272.461°
近地点 538.789km 538.779km
远地点 540.725km 540.685km
周期 95.438分钟 95.437分钟
每日圈数 15.088358 15.08844
Detailed Information
固有亮度:
5
最大亮度:
2.5
卫星平台:
Starlink v1.5
覆盖范围:
全球
运营商:
太空探索技术公司
运营商所在国:
美国
制造商(研发单位):
太空探索技术公司
制造商所在国:
美国
使用方式:
暂无
Satellite Introduction
星链(Starlink)计划是由太空探索技术公司(SpaceX)提出的一个巨型低轨卫星互联网星座项目,计划在2019年至2024年间在太空搭建由约1.2万颗卫星组成的“星链”网络,其中1584颗将部署在地球上空550千米处的近地轨道,并从2020年开始工作。该卫星仍在工作。
2D Orbit Map
3D Orbit Map
Orbit Altitude Analysis Chart
Orbit Inclination Analysis Chart
Orbit Comprehensive Analysis Chart
View Comprehensive Chart